Location: Unspecified
(0.0000°N, 0.0000°E)
Time: 22:51:22
(UTC+00:00)

GONETS M 08 (M18) - Pass Details

Date: 26 May 2026
Orbit: 1470 x 1518 km, 82.5° (Epoch: 7 June)

Event Time Altitude Azimuth Distance (km) Brightness Sun altitude
Rises 05:25:26 0° 193° (SSW) 4,650 ? -7.4°
Reaches altitude 10° 05:28:23 10° 197° (SSW) 3,672 ? -6.7°
Maximum altitude 05:37:00 57° 273° (W) 1,738 ? -4.7°
Drops below altitude 10° 05:45:39 10° 350° (N) 3,670 ? -2.7°
Sets 05:48:37 0° 354° (N) 4,647 ? -2.0°
